Location: LewisvilleTX
(33.0462°N, 96.9942°W)
Time: 20:36:18
(UTC+00:00)

N. Korean satellite - Pass Details

Date: 01 December 2021
Orbit: 447 x 490 km, 97.3° (Epoch: 27 January)

Event Time Altitude Azimuth Distance (km) Brightness Sun altitude
Rises 12:37:10 0° 346° (NNW) 2,456 9.8 -7.8°
Reaches altitude 10° 12:40:16 10° 313° (NW) 1,575 8.6 -7.2°
Maximum altitude 12:41:35 12° 290° (WNW) 1,458 8.3 -6.9°
Drops below altitude 10° 12:42:54 10° 267° (W) 1,570 8.6 -6.7°
Sets 12:45:59 0° 235° (SW) 2,436 9.8 -6.1°
